Disclaimer

Please do not use the information listed here in-flight or in-navigation, as they are not provided to us by the airports but are provided by volunteers, so they might be outdated.

Search


Regions


Airport information page

Radio informations:
Common traffic adv. frequency (CTAF) - 122.8 MHz

Airport informations:
Latitude: 29° 37' 35.11" N
Longitude: 043° 29' 26.21" E
Elevation: 1474 feet - 449 meters
Operating hours: 24 hour operations
Operating agency: Civil government, landing fees and diplomatic clearance may be required
Timezone: UTC+3
Fuel: N/A

Runway information:
11/29 - 9834 x 147 feet< - >2997 x 45 meters

Recent METARs:
OERF 171400Z 29019KT 5000 BLDU SKC 16/M03 Q1015 NOSIG
OERF 171400Z 29019KT 5000 BLDU SKC 16/M03 Q1015 NOSIG
OERF 171500Z 29013KT 3100 BLDU SKC 15/M02 Q1016 NOSIG

Airport on the map: